Overview Statistics Trail Chart Weather Telemetry Raw packets
 

This is the latest recevied weather packets stored in our database for station/object TA7O-10. If no packets are shown the sender has not sent any weather packets the latest 10 day(s).

<< 14 15 16 17 18 19 20 >>
Time Temp. Humidity Pressure Rain* Wind** Luminosity Snow
1788321113 28.89° C 43% 1004.3 hPa - - - -
1788320213 30.56° C 43% 1006.2 hPa - - - -
1788319312 30.56° C 43% 1006 hPa - - - -
1788318412 30.56° C 43% 1006 hPa - - - -
1788317512 30.56° C 43% 1006 hPa - - - -
1788316612 30.56° C 43% 1006 hPa - - - -
1788315712 30.56° C 43% 1006 hPa - - - -
1788314813 30.56° C 43% 1006 hPa - - - -
1788313912 30° C 43% 1005.9 hPa - - - -
1788313012 30.56° C 43% 1005.9 hPa - - - -
1788312112 30.56° C 43% 1005.9 hPa - - - -
1788311211 30° C 43% 1005.8 hPa - - - -
1788310311 30.56° C 44% 1005.7 hPa - - - -
1788309411 30.56° C 43% 1005.7 hPa - - - -
1788308511 30.56° C 43% 1005.4 hPa - - - -
1788307628 30.56° C 44% 1005.3 hPa - - - -
1788306711 30.56° C 44% 1005.3 hPa - - - -
1788305811 30° C 44% 1005.4 hPa - - - -
1788304912 28.33° C 44% 1002.9 hPa - - - -
1788304011 30° C 44% 1005.3 hPa - - - -
1788303111 30° C 44% 1005.4 hPa - - - -
1788302211 30° C 45% 1005.5 hPa - - - -
1788301311 30° C 44% 1005.6 hPa - - - -
1788300411 30° C 44% 1005.6 hPa - - - -
1788299510 30° C 45% 1005.6 hPa - - - -

* Rain since midnight (hover to see other rain measurements)
** Current wind speed in m/s (hover to see current wind gust speed)